EW9485 Weather Reports


Display with metric or nautical units.
time (UTC)temp
F
wind
direction
speed
MPH
gust
MPH
rain 1hr
in
rain 24hr
in
rain mn
in
humidity
%
barometer
mb
20260509072547 72 155 6.0 12.0 0.00 0.00 0.00 84 1011.2
20260509072045 72 158 4.0 10.0 0.00 0.00 0.00 84 1011.5
20260509071552 71 163 3.0 10.0 0.00 0.00 0.00 84 1011.6
20260509071045 71 141 4.0 10.0 0.00 0.00 0.00 84 1011.5
20260509070545 71 155 2.0 9.0 0.00 0.00 0.00 84 1011.7
20260509070056 71 149 2.0 9.0 0.00 0.00 0.00 84 1011.7
20260509065544 71 141 4.0 14.0 0.00 0.00 0.00 84 1011.7
20260509065044 71 156 5.0 14.0 0.00 0.00 0.00 84 1011.7
20260509064552 71 140 5.0 9.0 0.00 0.00 0.00 85 1011.7
20260509064051 70 153 3.0 11.0 0.00 0.00 0.00 84 1011.7
20260509063546 70 159 6.0 15.0 0.00 0.00 0.00 84 1011.7
20260509063103 70 140 5.0 17.0 0.00 0.00 0.00 84 1011.7
20260509062547 70 147 8.0 17.0 0.00 0.00 0.00 84 1011.7
20260509062044 70 152 7.0 17.0 0.00 0.00 0.00 84 1011.8
20260509061559 69 169 7.0 17.0 0.00 0.00 0.00 84 1011.8
20260509061045 69 146 8.0 17.0 0.00 0.00 0.00 84 1011.8
20260509060545 69 155 8.0 17.0 0.00 0.00 0.00 85 1011.8
20260509060056 69 157 7.0 14.0 0.00 0.00 0.00 85 1012.1
20260509055545 69 148 6.0 14.0 0.00 0.00 0.00 85 1012.3
20260509055050 69 150 6.0 13.0 0.00 0.00 0.00 85 1012.5
20260509054553 69 163 3.0 10.0 0.00 0.00 0.00 85 1012.9
20260509054047 69 142 4.0 15.0 0.00 0.00 0.00 85 1013.0
20260509053545 69 170 5.0 15.0 0.00 0.00 0.00 86 1013.0
20260509053052 69 188 5.0 11.0 0.00 0.00 0.00 86 1013.2
20260509052544 69 161 2.0 15.0 0.00 0.00 0.00 86 1013.3
20260509052132 69 165 6.0 15.0 0.00 0.00 0.00 86 1013.1
20260509051602 69 140 5.0 12.0 0.00 0.00 0.00 86 1013.1
20260509051044 69 141 6.0 13.0 0.00 0.00 0.00 86 1013.2
20260509050544 69 141 5.0 13.0 0.00 0.00 0.00 87 1013.4
20260509050101 69 145 5.0 12.0 0.00 0.00 0.00 87 1013.7
20260509045547 69 138 4.0 12.0 0.00 0.00 0.00 87 1013.7
20260509045046 68 143 3.0 9.0 0.00 0.00 0.00 87 1013.9
20260509044554 68 136 2.0 5.0 0.00 0.00 0.00 87 1014.2
20260509044044 68 0 0.0 0.0 0.00 0.00 0.00 86 1014.3
20260509043550 68 0 0.0 0.0 0.00 0.00 0.00 86 1014.3
20260509043049 68 0 0.0 0.0 0.00 0.00 0.00 86 1014.7
20260509042548 68 0 0.0 0.0 0.00 0.00 0.00 86 1015.1
20260509042047 68 0 0.0 0.0 0.00 0.00 0.00 86 1015.2
20260509041553 68 0 0.0 0.0 0.00 0.00 0.00 86 1015.3
20260509041046 68 0 0.0 0.0 0.00 0.00 0.00 87 1015.4
20260509040548 68 0 0.0 0.0 0.00 0.00 0.00 87 1015.4
20260509040056 68 0 0.0 0.0 0.00 0.00 0.00 87 1015.5
20260509035547 68 0 0.0 0.0 0.00 0.00 0.00 87 1015.3
20260509035047 68 0 0.0 3.0 0.00 0.00 0.00 87 1015.4
20260509034549 68 0 0.0 3.0 0.00 0.00 0.00 87 1015.2
20260509034046 68 0 1.0 3.0 0.00 0.00 0.00 87 1015.4
20260509033547 68 0 1.0 7.0 0.00 0.00 0.00 87 1015.1
20260509033107 68 0 1.0 7.0 0.00 0.00 0.00 87 1015.1
20260509032547 68 115 2.0 7.0 0.00 0.00 0.00 87 1014.9
20260509032052 68 0 2.0 7.0 0.00 0.00 0.00 86 1014.8
20260509031553 68 107 2.0 5.0 0.00 0.00 0.00 86 1014.7
20260509031048 68 98 1.0 7.0 0.00 0.00 0.00 86 1014.8
20260509030545 68 97 2.0 8.0 0.00 0.00 0.00 86 1014.8
20260509030052 68 140 1.0 8.0 0.00 0.00 0.00 86 1014.6
20260509025546 68 103 2.0 6.0 0.00 0.00 0.00 86 1014.5
20260509025047 68 84 2.0 9.0 0.00 0.00 0.00 86 1014.4
20260509024558 68 91 2.0 11.0 0.00 0.00 0.00 86 1014.5
20260509024047 68 103 3.0 11.0 0.00 0.00 0.00 86 1014.4
20260509023546 68 109 3.0 11.0 0.00 0.00 0.00 86 1014.3
20260509023050 68 103 3.0 9.0 0.00 0.00 0.00 86 1014.2
20260509022547 68 104 4.0 9.0 0.00 0.00 0.00 86 1014.6
20260509022047 68 0 2.0 9.0 0.00 0.00 0.00 86 1014.5
20260509021555 68 101 5.0 10.0 0.00 0.00 0.00 86 1014.5
20260509021049 68 109 5.0 10.0 0.00 0.00 0.00 86 1014.4
20260509020547 68 101 3.0 8.0 0.00 0.00 0.00 85 1014.5
20260509020055 68 77 5.0 8.0 0.00 0.00 0.00 85 1014.6
20260509015548 68 72 2.0 9.0 0.00 0.00 0.00 85 1014.5
20260509015048 68 68 3.0 9.0 0.00 0.00 0.00 85 1014.1
20260509014553 68 42 4.0 9.0 0.00 0.00 0.00 85 1014.2
20260509014052 69 30 4.0 13.0 0.00 0.00 0.00 85 1014.6
20260509013548 69 360 4.0 13.0 0.00 0.00 0.00 85 1014.8
20260509013055 69 42 7.0 13.0 0.00 0.00 0.00 85 1014.5
20260509012547 69 30 5.0 12.0 0.00 0.00 0.00 84 1014.5
20260509012045 69 5 7.0 12.0 0.00 0.00 0.00 84 1014.4
20260509011556 69 17 6.0 12.0 0.00 0.00 0.00 84 1014.5
20260509011046 69 21 4.0 10.0 0.00 0.00 0.00 84 1014.5
20260509010547 70 17 5.0 11.0 0.00 0.00 0.00 84 1014.6
20260509010051 70 12 2.0 11.0 0.00 0.00 0.00 83 1014.7
20260509005547 70 56 4.0 10.0 0.00 0.00 0.00 84 1014.7
20260509005047 70 30 4.0 11.0 0.00 0.00 0.00 83 1014.8
20260509004556 70 23 5.0 13.0 0.00 0.00 0.00 83 1014.7
20260509004048 70 5 5.0 15.0 0.00 0.00 0.00 83 1014.8
20260509003547 70 23 7.0 15.0 0.00 0.00 0.00 83 1014.8
20260509003048 71 342 10.0 15.0 0.00 0.00 0.00 82 1014.6
20260509002549 71 5 6.0 13.0 0.00 0.00 0.00 82 1014.7
20260509002047 71 10 7.0 13.0 0.00 0.00 0.00 82 1014.7
20260509001556 71 5 7.0 13.0 0.00 0.00 0.00 82 1014.6
20260509001047 71 31 7.0 13.0 0.00 0.00 0.00 82 1014.5
20260509000547 71 345 6.0 11.0 0.00 0.00 0.00 82 1014.5
20260509000051 72 20 6.0 11.0 0.00 0.00 0.00 81 1014.5
20260508235547 72 19 6.0 14.0 0.00 0.00 0.00 81 1014.3
20260508235048 72 11 9.0 14.0 0.00 0.00 0.00 81 1014.2
20260508234552 72 28 5.0 11.0 0.00 0.00 0.00 81 1014.1
20260508234051 72 18 5.0 9.0 0.00 0.00 0.00 81 1014.1
20260508233548 72 19 4.0 7.0 0.00 0.00 0.00 81 1014.2
20260508233102 72 22 3.0 8.0 0.00 0.00 0.00 80 1014.3
20260508232548 72 5 3.0 9.0 0.00 0.00 0.00 80 1014.0
20260508232045 72 10 3.0 9.0 0.00 0.00 0.00 80 1014.0
20260508231556 73 32 5.0 11.0 0.00 0.00 0.00 80 1013.9
20260508231044 73 38 4.0 12.0 0.00 0.00 0.00 80 1014.1
20260508230544 73 345 8.0 12.0 0.00 0.00 0.00 80 1014.2
20260508230052 73 355 4.0 12.0 0.00 0.00 0.00 80 1014.2
20260508225547 73 26 7.0 14.0 0.00 0.00 0.00 79 1014.2
20260508225047 73 344 8.0 15.0 0.00 0.00 0.00 79 1014.2
20260508224609 73 355 9.0 15.0 0.00 0.00 0.00 78 1014.2
20260508224047 73 338 9.0 13.0 0.00 0.00 0.00 78 1014.5
20260508223547 74 339 7.0 18.0 0.00 0.00 0.00 77 1014.4
20260508223052 74 321 8.0 18.0 0.00 0.00 0.00 76 1014.4
20260508222547 75 325 12.0 18.0 0.00 0.00 0.00 75 1014.3
20260508222048 76 310 9.0 17.0 0.00 0.00 0.00 74 1014.4
20260508221608 77 340 10.0 17.0 0.00 0.00 0.00 72 1014.2
20260508221048 79 332 8.0 15.0 0.00 0.00 0.00 72 1014.0
20260508220547 80 282 3.0 8.0 0.00 0.00 0.00 74 1013.7
20260508220055 81 259 4.0 8.0 0.00 0.00 0.00 73 1013.5
20260508215551 81 285 3.0 9.0 0.00 0.02 0.00 73 1013.5
20260508215048 81 240 3.0 9.0 0.00 0.02 0.00 72 1013.3
20260508214551 82 252 6.0 9.0 0.00 0.02 0.00 71 1013.4
20260508214049 82 321 4.0 9.0 0.00 0.02 0.00 71 1013.2
20260508213547 82 215 2.0 8.0 0.00 0.02 0.00 71 1013.3
20260508213055 82 225 3.0 9.0 0.00 0.02 0.00 71 1013.4
20260508212547 82 197 5.0 9.0 0.00 0.02 0.00 71 1013.4
20260508212049 82 223 4.0 8.0 0.00 0.02 0.00 71 1013.3
20260508211555 82 220 4.0 8.0 0.00 0.02 0.00 72 1013.2
20260508211045 82 234 4.0 8.0 0.00 0.02 0.00 71 1013.2
20260508210548 83 237 4.0 8.0 0.00 0.02 0.00 70 1013.1
20260508210057 83 242 2.0 8.0 0.00 0.02 0.00 74 1013.1
20260508205544 84 169 3.0 6.0 0.00 0.02 0.00 69 1013.2
20260508205047 83 244 3.0 5.0 0.00 0.02 0.00 71 1013.1
20260508204554 82 192 2.0 7.0 0.00 0.02 0.00 72 1013.1
20260508204048 82 164 4.0 7.0 0.00 0.02 0.00 71 1013.0
20260508203548 82 153 0.0 6.0 0.00 0.02 0.00 73 1012.9
20260508203059 81 153 1.0 6.0 0.00 0.02 0.00 73 1012.9
20260508202549 81 189 1.0 6.0 0.00 0.02 0.00 73 1012.9
20260508202048 81 56 3.0 6.0 0.00 0.02 0.00 73 1012.9
20260508201555 82 111 1.0 7.0 0.00 0.02 0.00 72 1013.1
20260508201048 81 38 3.0 7.0 0.00 0.02 0.00 73 1013.1
20260508200551 81 44 2.0 6.0 0.00 0.02 0.00 73 1013.0
20260508200108 81 85 2.0 7.0 0.00 0.02 0.00 73 1013.1
20260508195544 80 53 2.0 7.0 0.00 0.03 0.00 74 1012.9
20260508195047 80 42 2.0 6.0 0.00 0.03 0.00 77 1013.1
20260508194549 80 38 3.0 7.0 0.00 0.03 0.00 75 1013.4
20260508194044 80 57 3.0 7.0 0.00 0.03 0.00 74 1013.5
20260508193548 80 119 3.0 8.0 0.00 0.03 0.00 75 1013.4
20260508193101 79 53 4.0 9.0 0.00 0.03 0.00 75 1013.5
20260508192547 79 42 4.0 9.0 0.00 0.03 0.00 76 1013.5
20260508192046 78 65 2.0 7.0 0.00 0.03 0.00 77 1013.5
20260508191559 78 60 4.0 8.0 0.00 0.03 0.00 76 1013.6
20260508191047 78 96 3.0 8.0 0.00 0.03 0.00 76 1013.6
20260508190549 78 71 4.0 7.0 0.00 0.03 0.00 77 1013.7
20260508190051 77 49 3.0 7.0 0.00 0.03 0.00 77 1013.6
20260508185548 77 87 3.0 8.0 0.00 0.05 0.00 77 1013.8
20260508185045 77 69 4.0 8.0 0.00 0.05 0.00 76 1013.8
20260508184550 77 94 4.0 8.0 0.00 0.05 0.00 76 1013.9
20260508184047 78 93 4.0 8.0 0.00 0.05 0.00 76 1013.9
20260508183546 78 86 4.0 8.0 0.00 0.05 0.00 76 1013.9
20260508183104 77 92 3.0 11.0 0.00 0.05 0.00 76 1013.9
20260508182546 77 115 5.0 11.0 0.00 0.05 0.00 76 1013.9
20260508182054 77 49 4.0 10.0 0.00 0.05 0.00 76 1013.9
20260508181611 77 111 5.0 10.0 0.00 0.05 0.00 76 1014.0
20260508181045 78 107 5.0 10.0 0.00 0.05 0.00 76 1014.1
20260508180547 78 82 3.0 10.0 0.00 0.05 0.00 80 1014.1
20260508180052 76 125 3.0 10.0 0.00 0.05 0.00 78 1014.1
20260508175551 76 58 5.0 10.0 0.00 0.05 0.00 78 1014.1
20260508175049 76 60 4.0 9.0 0.00 0.05 0.00 78 1014.2
20260508174551 76 81 3.0 9.0 0.00 0.05 0.00 78 1014.4
20260508174048 76 38 3.0 10.0 0.00 0.05 0.00 78 1014.5
20260508173549 76 53 5.0 10.0 0.00 0.05 0.00 78 1014.5
20260508173058 76 55 5.0 10.0 0.00 0.05 0.00 78 1014.7
20260508172546 76 79 4.0 9.0 0.00 0.05 0.00 78 1014.6
20260508172045 75 97 4.0 11.0 0.00 0.05 0.00 79 1014.7
20260508171555 75 36 5.0 11.0 0.00 0.05 0.00 78 1014.9
20260508171047 75 15 6.0 10.0 0.00 0.05 0.00 78 1015.0
20260508170544 75 44 5.0 11.0 0.00 0.05 0.00 79 1015.0
20260508170100 75 48 6.0 12.0 0.00 0.05 0.00 79 1015.0
20260508165556 75 26 6.0 12.0 0.00 0.05 0.00 80 1015.0
20260508165044 74 24 5.0 12.0 0.00 0.05 0.00 81 1015.0
20260508164552 74 47 6.0 12.0 0.00 0.05 0.00 81 1015.0
20260508164047 73 25 5.0 12.0 0.00 0.05 0.00 81 1015.2
20260508163546 73 47 6.0 12.0 0.00 0.05 0.00 81 1015.3
20260508163055 73 49 6.0 12.0 0.00 0.05 0.00 81 1015.5
20260508162549 73 61 5.0 12.0 0.00 0.05 0.00 81 1015.5
20260508162048 73 43 6.0 11.0 0.00 0.05 0.00 81 1015.6
20260508161558 73 12 4.0 9.0 0.00 0.05 0.00 81 1015.8
20260508161048 73 46 5.0 9.0 0.00 0.05 0.00 81 1015.7
20260508160549 73 355 4.0 9.0 0.00 0.05 0.00 81 1015.7
20260508160100 73 98 3.0 9.0 0.00 0.05 0.00 81 1015.7
20260508155547 73 45 4.0 9.0 0.00 0.05 0.00 82 1015.6
20260508155047 73 66 3.0 7.0 0.00 0.05 0.00 82 1015.6
20260508154555 72 96 2.0 6.0 0.00 0.05 0.00 82 1015.8
20260508154044 72 60 3.0 8.0 0.00 0.05 0.00 82 1015.7
20260508153548 72 57 2.0 8.0 0.00 0.05 0.00 82 1015.8
20260508153057 72 95 3.0 8.0 0.00 0.05 0.00 82 1015.8
20260508152548 72 74 3.0 9.0 0.00 0.05 0.00 82 1015.6
20260508152047 72 82 3.0 9.0 0.00 0.05 0.00 81 1015.5
20260508151608 72 46 4.0 9.0 0.00 0.05 0.00 81 1015.6
20260508151045 72 54 4.0 8.0 0.00 0.05 0.00 81 1015.6
20260508150546 72 54 3.0 7.0 0.00 0.05 0.00 80 1015.7
20260508150124 72 65 3.0 7.0 0.00 0.05 0.00 80 1015.7
20260508145549 72 52 3.0 10.0 0.00 0.05 0.00 80 1015.7
20260508145045 72 57 4.0 10.0 0.00 0.05 0.00 81 1015.7
20260508144604 72 59 2.0 9.0 0.00 0.05 0.00 81 1015.7
20260508144048 72 13 4.0 9.0 0.00 0.05 0.00 80 1015.7
20260508143547 71 43 3.0 8.0 0.00 0.05 0.00 81 1015.7
20260508143054 71 62 2.0 9.0 0.00 0.05 0.00 81 1015.6
20260508142545 71 19 4.0 9.0 0.00 0.05 0.00 80 1015.6
20260508142052 71 44 4.0 9.0 0.00 0.05 0.00 80 1015.6
20260508141607 71 51 3.0 9.0 0.00 0.05 0.00 80 1015.8
20260508141046 71 33 4.0 9.0 0.00 0.05 0.00 81 1015.9
20260508140547 71 23 4.0 9.0 0.00 0.05 0.00 81 1015.8
20260508140107 71 42 3.0 8.0 0.00 0.05 0.00 81 1015.6
20260508135544 71 96 2.0 9.0 0.00 0.05 0.00 81 1015.6
20260508135045 71 78 4.0 11.0 0.00 0.05 0.00 81 1015.4
20260508134551 71 61 5.0 11.0 0.00 0.05 0.00 81 1015.6
20260508134044 71 49 3.0 11.0 0.00 0.05 0.00 81 1015.5
20260508133544 71 55 5.0 11.0 0.00 0.05 0.00 81 1015.6
20260508133052 71 44 5.0 11.0 0.00 0.05 0.00 81 1015.6
20260508132545 71 59 5.0 11.0 0.00 0.05 0.00 82 1015.6
20260508132048 71 35 4.0 12.0 0.00 0.05 0.00 82 1015.6
20260508131558 71 80 3.0 12.0 0.00 0.05 0.00 82 1015.6
20260508131047 71 49 4.0 11.0 0.00 0.05 0.00 83 1015.7
20260508130548 71 34 6.0 11.0 0.00 0.05 0.00 83 1015.6
20260508130057 70 45 4.0 9.0 0.00 0.05 0.00 83 1015.6
20260508125545 70 52 4.0 9.0 0.00 0.05 0.00 83 1015.6
20260508125048 70 78 2.0 8.0 0.00 0.05 0.00 84 1015.6
20260508124601 70 58 3.0 9.0 0.00 0.05 0.00 84 1015.7
20260508124050 70 39 5.0 9.0 0.00 0.05 0.00 84 1015.8
20260508123546 70 42 3.0 9.0 0.00 0.05 0.00 84 1015.7
20260508123051 70 55 5.0 9.0 0.00 0.05 0.00 84 1015.6
20260508122545 70 67 4.0 9.0 0.00 0.05 0.00 85 1015.5
20260508122047 70 61 4.0 8.0 0.00 0.05 0.00 85 1015.5
20260508121556 70 56 4.0 8.0 0.00 0.05 0.00 85 1015.4
20260508121047 70 61 4.0 9.0 0.00 0.05 0.00 86 1015.4
20260508120545 70 54 4.0 9.0 0.00 0.05 0.00 86 1015.2
20260508115549 70 76 3.0 9.0 0.00 0.05 0.00 86 1014.7
20260508115048 70 32 4.0 9.0 0.00 0.05 0.00 86 1015.0
20260508114603 70 53 4.0 11.0 0.00 0.05 0.00 86 1015.2
20260508114048 70 58 5.0 11.0 0.00 0.05 0.00 86 1015.1
20260508113545 70 47 3.0 8.0 0.00 0.05 0.00 86 1015.0
20260508113124 70 65 3.0 11.0 0.00 0.05 0.00 86 1014.9
20260508112550 70 61 4.0 11.0 0.00 0.05 0.00 87 1014.7
20260508112047 70 55 3.0 7.0 0.00 0.05 0.00 87 1014.5
20260508111556 70 78 3.0 8.0 0.00 0.05 0.00 87 1014.6
20260508111047 70 74 3.0 8.0 0.00 0.05 0.00 87 1014.6
20260508110544 70 47 4.0 8.0 0.00 0.05 0.00 87 1014.6
20260508110054 70 30 3.0 7.0 0.00 0.05 0.00 87 1014.4
20260508105546 70 53 1.0 7.0 0.00 0.05 0.00 86 1014.2
20260508105048 70 34 2.0 8.0 0.00 0.05 0.00 86 1014.1
20260508104557 70 41 3.0 8.0 0.00 0.05 0.00 86 1014.1
20260508104045 70 24 3.0 8.0 0.00 0.05 0.00 86 1014.0
20260508103545 70 22 2.0 8.0 0.00 0.05 0.00 86 1014.1
20260508103105 70 17 4.0 9.0 0.00 0.05 0.00 86 1014.2
20260508102545 70 28 4.0 9.0 0.00 0.05 0.00 86 1013.9
20260508102045 70 44 5.0 9.0 0.00 0.05 0.00 86 1014.0
20260508101556 70 29 3.0 9.0 0.00 0.05 0.00 86 1013.8
20260508101048 71 10 4.0 9.0 0.00 0.05 0.00 86 1013.8
20260508100545 71 12 4.0 8.0 0.00 0.05 0.00 86 1013.7
20260508100052 71 34 3.0 8.0 0.00 0.05 0.00 86 1013.7
20260508095545 71 30 4.0 8.0 0.00 0.05 0.00 86 1013.7
20260508095047 71 22 4.0 10.0 0.00 0.05 0.00 86 1013.7
20260508094554 71 28 4.0 10.0 0.00 0.05 0.00 86 1013.6
20260508094044 71 341 3.0 10.0 0.00 0.05 0.00 86 1013.5
20260508093546 71 5 3.0 10.0 0.00 0.05 0.00 86 1013.4
20260508093050 71 43 5.0 10.0 0.00 0.05 0.00 86 1013.2
20260508092544 71 35 5.0 11.0 0.00 0.05 0.00 86 1013.3
20260508092044 71 53 3.0 11.0 0.00 0.05 0.00 86 1013.3
20260508091556 71 348 4.0 10.0 0.00 0.05 0.00 87 1013.3
20260508091045 71 32 4.0 10.0 0.00 0.05 0.00 87 1013.3
20260508090547 71 15 5.0 10.0 0.00 0.05 0.00 87 1013.2
20260508085545 71 5 4.0 10.0 0.00 0.05 0.00 87 1013.2
20260508085045 71 36 6.0 10.0 0.00 0.05 0.00 87 1013.3
20260508084554 72 34 5.0 9.0 0.00 0.05 0.00 87 1013.1
20260508084045 72 24 4.0 9.0 0.00 0.05 0.00 87 1013.1
20260508083546 72 26 4.0 9.0 0.00 0.05 0.00 87 1013.1
20260508083055 72 5 4.0 11.0 0.00 0.05 0.00 87 1013.3
20260508082545 72 29 5.0 13.0 0.00 0.05 0.00 87 1013.1
20260508082045 72 355 5.0 13.0 0.00 0.05 0.00 87 1013.0
20260508081605 72 338 7.0 13.0 0.00 0.05 0.00 87 1012.9
20260508081044 73 24 6.0 9.0 0.00 0.05 0.00 87 1013.0
20260508080544 73 34 4.0 8.0 0.00 0.05 0.00 87 1013.1
20260508080053 73 15 4.0 8.0 0.00 0.05 0.00 88 1013.2
20260508075544 73 15 3.0 8.0 0.00 0.05 0.00 88 1013.2
20260508075044 73 25 2.0 8.0 0.00 0.05 0.00 88 1013.2
20260508074553 73 9 3.0 8.0 0.00 0.05 0.00 88 1013.4
20260508074045 73 360 3.0 7.0 0.00 0.05 0.00 88 1013.5
20260508073547 74 355 3.0 7.0 0.00 0.05 0.00 88 1013.6
20260508073102 74 9 2.0 9.0 0.00 0.05 0.00 88 1013.4